Regional Weather Roundup
Issued by NWS

Home | Current Version | Previous Version | Text Only | Print | Product List | Glossary Off
Versions: 1 2 3 4 5 6 7 8 9 10 11 12 13 14 15 16 17 18 19 20 21 22 23 24 25 26 27 28 29 30 31 32 33 34 35 36 37 38 39 40 41 42 43 44 45 46 47 48 49 50

565
ASUS44 KLIX 202207
RWRLA
LOUISIANA WEATHER ROUNDUP
NATIONAL WEATHER SERVICE NEW ORLEANS LA
500 PM CDT MON APR 20 2015

NOTE: "FAIR" INDICATES FEW OR NO CLOUDS BELOW 12,000 FEET WITH NO
      SIGNIFICANT WEATHER AND/OR OBSTRUCTIONS TO VISIBILITY.
      SKY/WX - SKY CONDITION AND SIGNIFICANT WEATHER.
      TMP - AIR TEMPERATURE.    DP   - DEWPOINT TEMPERATURE.
      RH  - RELATIVE HUMIDITY.  PRES - PRESSURE.
      HX  - HEAT INDEX.         WCI  - WIND CHILL INDEX.

*  THESE STATIONS ARE NOT NWS OR FAA STATIONS AND ARE NOT UNDER
   NWS QUALITY CONTROL.

LAZ040-048-061>063-065-066-069-202300-
SOUTHEAST LOUISIANA

CITY           SKY/WX    TMP DP  RH WIND       PRES   REMARKS
N.O. AUDUBON     N/A     80  62  52 MISG        N/A
N.O. INTL ARPT PTSUNNY   76  54  46 NW13      29.85R
N.O. LAKEFRONT PTSUNNY   77  57  50 NW14      29.85S
SLIDELL        PTSUNNY   76  57  51 N8        29.84R
BATON ROUGE    MOSUNNY   71  49  45 N9        29.88R
BOOTHVILLE     CLOUDY    78  62  57 W9        29.85R
BELLE CHASSE   PTSUNNY   77  54  44 W6        29.84R
BOGALUSA*        N/A     76  51  41 NW12      29.87R
GALLIANO*      MOCLDY    80  56  43 NW6       29.85R
NEW ROADS*     FAIR      71  48  44 NW7       29.89S
GONZALES*      FAIR      72  53  50 NW7       29.87R
HAMMOND*       MOSUNNY   75  50  41 NW10      29.88R
HOUMA*         MOSUNNY   77  57  50 N12       29.85R
PORT FOURCHON* CLEAR     79  57  47 W10       29.89R

$$

LAZ041-044-053-054-202300-
SOUTHWEST LOUISIANA

CITY           SKY/WX    TMP DP  RH WIND       PRES   REMARKS
LAKE CHARLES   MOSUNNY   75  48  38 N10       29.89F
LAFAYETTE      PTSUNNY   73  49  42 N12       29.89R
PATTERSON      MOSUNNY   73  52  46 N9        29.88R
SALT POINT       N/A     75  54  47 VRB7      29.85S
NEW IBERIA     MOSUNNY   73  51  46 N13       29.89R
CHENAULT AIRPK NOT AVBL

$$

LAZ027-028-202300-
CENTRAL LOUISIANA

CITY           SKY/WX    TMP DP  RH WIND       PRES   REMARKS
FORT POLK      SUNNY     72  41  33 NW10      29.90F
ALEXANDRIA INT SUNNY     70  46  42 NW13      29.90S
ALEXANDRIA     SUNNY     72  43  35 W7        29.90S

$$

LAZ001-002-202300-
NORTHWEST LOUISIANA

CITY           SKY/WX    TMP DP  RH WIND       PRES   REMARKS
SHREVEPORT     MOSUNNY   72  38  29 N13G20    29.92F
BARKSDALE AFB  SUNNY     71  37  29 NW13      29.92F
DTN SHREVEPORT SUNNY     69  37  30 NW10      29.93S

$$

LAZ014-016-202300-
NORTHEAST LOUISIANA

CITY           SKY/WX    TMP DP  RH WIND       PRES   REMARKS
MONROE         SUNNY     71  41  33 NW14      29.91R
TALLULAH       SUNNY     71  45  39 NW9       29.89S

$$




USA.gov is the U.S. government's official web portal to all federal, state and local government web resources and services.